GFSGL_700_temp_096.txt.gz
Temp
6 6 6 6 6 5 5 5 5 5 4 4 4 4 3 2 1 -0 -1 -1 -0 -0 -1 -1 -1 -2 -2 -2 -3 -3 -3 -3 -2 -2 -2 -2 -2 -2 -1 -2 -2 -1 -2
5 5 6 5 6 5 5 5 5 5 4 4 3 3 3 2 2 1 -0 -0 -0 -0 -1 -1 -1 -1 -1 -2 -2 -2 -2 -3 -2 -2 -2 -1 -1 -2 -2 -1 -2 -2 -2
4 5 5 5 5 5 5 4 4 4 4 4 4 3 3 2 2 2 1 0 -0 -0 -1 -1 -0 -2 -2 -1 -2 -2 -3 -2 -2 -2 -2 -1 -2 -1 -2 -2 -2 -2 -1
4 4 5 5 5 5 5 4 4 4 4 4 4 4 4 3 3 2 2 1 1 0 -0 -1 -1 -2 -2 -2 -2 -2 -2 -3 -3 -3 -2 -2 -2 -2 -2 -3 -2 -2 -1
4 4 4 5 5 5 5 5 4 4 4 3 3 3 3 3 3 3 2 2 2 1 0 -0 -0 -1 -1 -2 -2 -2 -2 -2 -2 -2 -2 -2 -2 -3 -2 -2 -2 -2 -1
3 4 4 4 4 4 4 4 4 4 4 4 4 4 4 3 3 2 2 1 1 1 1 1 0 -0 -0 -1 -1 -1 -2 -2 -2 -2 -2 -2 -2 -3 -2 -1 -1 -0 0
3 4 4 4 4 4 4 4 3 3 3 2 2 2 3 3 3 2 1 1 1 1 1 1 1 1 1 0 -0 -1 -1 -1 -1 -1 -2 -2 -2 -2 -2 -2 -1 0 1
4 4 4 4 4 4 4 3 3 3 3 3 2 2 1 1 1 1 1 1 1 1 1 1 1 1 1 1 -0 -0 -0 -0 -1 -1 -1 -2 -2 -1 -1 -2 -2 -1 -1
3 4 4 4 4 4 3 3 3 3 3 3 2 1 1 1 1 1 1 1 0 1 1 1 1 1 1 0 1 0 0 0 -0 -1 -1 -1 -2 -2 -1 -1 -1 -2 -2
2 2 2 2 2 3 3 3 3 3 3 2 1 1 1 2 2 2 1 0 0 0 -0 -0 -0 -0 -1 1 0 0 1 -0 -1 -1 -1 -1 -1 -2 -1 -1 -2 -1 -2
1 1 1 0 1 1 1 2 2 2 2 3 2 2 1 1 1 1 1 0 0 0 0 1 1 2 1 1 0 -0 -0 -1 -0 -1 -0 -0 0 0 -0 -1 -1 -2 -1
0 0 0 0 0 0 0 0 1 1 1 1 1 1 1 1 1 1 0 0 0 0 0 0 0 -0 -0 -0 -0 -1 -1 -1 -1 -1 -1 -1 -2 -2 -1 -2 -2 -1 -2
-0 -0 0 0 -0 -0 -0 -0 -0 -0 0 0 0 1 1 1 1 1 0 -1 -1 -0 0 0 -0 -0 -1 -1 -1 -1 -1 -1 -2 -2 -2 -2 -3 -4 -3 -5 -6 -6 -6
-1 -1 -1 -1 -1 -1 -0 -0 -1 -1 -1 -1 -1 -1 -0 -0 -0 -0 -0 -0 -0 -1 -1 -2 -1 -1 -1 -1 -1 -2 -0 -3 -4 -4 -5 -5 -6 -7 -7 -8 -8 -8 -8
-2 -2 -2 -2 -2 -2 -2 -2 -2 -2 -2 -2 -2 -2 -2 -2 -2 -2 -2 -2 -1 -1 -1 -2 -2 -2 -2 -2 -3 -4 -5 -6 -7 -8 -8 -9 -10 -10 -10 -10 -10 -10 -10
-2 -3 -3 -3 -2 -2 -3 -2 -2 -2 -2 -2 -3 -3 -3 -3 -3 -3 -3 -3 -3 -3 -4 -4 -4 -5 -5 -5 -6 -7 -8 -8 -9 -9 -9 -10 -10 -10 -11 -11 -11 -11 -11
-3 -3 -3 -3 -3 -3 -3 -3 -3 -4 -4 -4 -4 -4 -4 -4 -4 -4 -5 -5 -5 -5 -6 -7 -7 -8 -8 -8 -9 -9 -10 -10 -10 -10 -10 -11 -11 -11 -11 -11 -12 -13 -13
-4 -4 -4 -5 -5 -5 -5 -5 -6 -7 -7 -7 -7 -7 -7 -7 -7 -7 -7 -7 -8 -8 -9 -10 -10 -10 -10 -10 -10 -11 -11 -11 -11 -11 -11 -11 -11 -12 -13 -13 -13 -13 -14
-6 -7 -7 -7 -7 -7 -8 -8 -8 -8 -8 -8 -9 -9 -9 -9 -10 -10 -10 -10 -11 -11 -11 -12 -12 -12 -12 -12 -12 -12 -12 -12 -12 -12 -13 -13 -13 -13 -14 -14 -14 -15 -15
-8 -8 -8 -8 -8 -8 -9 -9 -9 -10 -10 -10 -10 -11 -11 -11 -11 -11 -11 -12 -12 -12 -13 -13 -13 -13 -13 -13 -13 -13 -13 -13 -13 -13 -13 -14 -14 -14 -15 -15 -15 -16 -16
-10 -10 -10 -10 -10 -10 -11 -11 -11 -12 -12 -12 -12 -12 -12 -12 -12 -13 -13 -13 -12 -12 -13 -14 -13 -13 -13 -13 -13 -14 -14 -14 -14 -14 -15 -15 -15 -15 -16 -16 -16 -17 -17
-12 -12 -12 -12 -12 -13 -13 -13 -13 -13 -13 -13 -13 -13 -13 -13 -13 -13 -13 -13 -14 -14 -13 -13 -14 -14 -14 -14 -15 -15 -15 -15 -15 -16 -16 -16 -16 -16 -17 -17 -18 -18 -19
-14 -14 -14 -14 -14 -14 -14 -14 -14 -14 -14 -14 -14 -14 -14 -13 -13 -13 -13 -14 -14 -14 -14 -15 -15 -15 -15 -15 -16 -16 -16 -16 -17 -17 -17 -17 -17 -18 -18 -18 -19 -19 -19
-15 -15 -15 -15 -15 -15 -15 -15 -15 -15 -15 -15 -14 -14 -14 -14 -14 -15 -15 -15 -15 -16 -16 -16 -16 -17 -17 -17 -17 -17 -17 -17 -18 -18 -18 -18 -18 -18 -19 -19 -20 -20 -20
-16 -16 -16 -16 -16 -16 -16 -16 -16 -15 -15 -15 -15 -15 -15 -16 -16 -16 -16 -16 -17 -17 -17 -17 -17 -18 -18 -18 -18 -18 -18 -19 -19 -19 -19 -19 -20 -20 -21 -21 -21 -21 -22
-17 -17 -17 -17 -17 -17 -17 -17 -16 -16 -16 -16 -16 -16 -17 -17 -17 -17 -17 -18 -18 -18 -18 -18 -18 -19 -19 -19 -19 -19 -20 -20 -20 -20 -20 -21 -21 -21 -22 -22 -22 -22 -22

GFSGL_700_temp_099.txt.gz
Temp
6 6 5 5 5 5 5 5 5 5 4 3 2 2 3 2 2 2 2 1 1 0 0 -1 -0 -1 -1 -2 -2 -2 -2 -2 -2 -2 -1 -2 -3 -2 -2 -2 -2 -2 -2
6 5 5 5 5 5 5 5 5 5 4 4 3 3 2 2 2 2 1 0 -1 -1 -1 -0 -1 -1 -1 -2 -2 -2 -2 -2 -2 -2 -2 -2 -2 -2 -2 -2 -2 -1 -1
6 4 5 5 5 5 5 5 5 5 4 4 4 4 3 3 2 2 2 1 0 -1 -0 -1 -1 -1 -1 -1 -1 -1 -2 -1 -2 -2 -2 -2 -2 -2 -2 -2 -2 -2 -2
5 4 4 5 5 5 5 5 5 5 5 4 4 4 4 3 3 3 2 2 1 0 -1 -1 -1 -1 -1 -1 -1 -1 -1 -2 -2 -2 -2 -2 -2 -2 -2 -1 -2 -2 -2
4 4 3 4 4 5 4 5 5 5 5 4 4 4 4 4 3 3 2 2 1 1 0 0 0 0 -0 -1 -1 -1 -1 -1 -2 -2 -2 -2 -2 -2 -2 -2 -2 -2 -2
3 2 1 3 3 4 4 4 4 4 4 4 4 4 3 3 3 2 2 2 2 2 2 1 1 1 1 -0 -0 -0 -1 -1 -2 -2 -2 -2 -2 -3 -3 -3 -3 -2 -2
2 1 1 1 2 3 4 4 3 3 3 3 3 3 2 2 2 2 2 2 2 2 2 2 2 1 1 0 -0 -0 -1 -1 -2 -2 -2 -2 -2 -2 -2 -2 -2 -2 -1
1 0 1 2 3 3 4 4 3 3 3 3 3 3 2 2 2 1 1 1 0 1 1 1 1 1 1 0 -0 -0 -0 -1 -1 -1 -1 -1 -0 -0 -0 -1 -0 -0 -1
-0 -1 1 2 2 3 3 4 4 4 4 3 3 3 4 4 3 3 2 1 1 0 0 0 0 0 0 0 0 0 0 0 0 -0 -1 -1 -1 -1 -2 -1 -1 -1 -1
0 0 1 2 2 2 2 3 3 2 3 3 3 3 3 3 3 2 1 1 1 1 0 -0 1 0 1 1 1 -1 -1 -0 -0 1 -1 -1 -0 -1 -1 -1 -1 -2 -2
-0 0 0 1 1 1 1 1 1 1 2 2 2 2 2 2 2 2 1 0 -0 -0 -0 -0 -0 0 -0 -0 -0 -1 -0 -1 -0 -1 -1 -1 -1 -1 -1 -1 -1 -2 -1
-1 -1 -0 0 0 0 0 1 1 1 1 1 1 1 1 1 1 1 1 1 1 0 0 0 0 0 0 0 0 -0 -0 -1 -1 -1 -2 -1 -2 -2 -2 -2 -2 -2 -3
-1 -1 -1 -1 -1 -1 -1 -1 -0 0 0 0 1 1 0 0 0 0 0 0 0 0 0 0 0 -0 -0 -1 -1 -1 -1 -1 -2 -2 -2 -3 -3 -4 -4 -4 -5 -5 -6
-2 -2 -1 -1 -1 -1 -1 -1 -1 -1 -1 -1 -1 -1 -1 -0 -0 -0 -0 -1 -1 -1 -1 -1 -1 -1 -1 -1 -2 -2 -2 -2 -3 -4 -5 -5 -6 -6 -7 -8 -8 -9 -9
-2 -2 -2 -2 -2 -2 -1 -1 -1 -1 -1 -2 -2 -2 -1 -1 -1 -1 -2 -2 -2 -2 -2 -2 -2 -2 -2 -2 -2 -3 -4 -5 -6 -7 -7 -8 -8 -9 -9 -10 -10 -10 -10
-2 -2 -2 -2 -2 -2 -2 -2 -2 -2 -2 -2 -2 -2 -2 -3 -3 -3 -3 -3 -3 -3 -3 -4 -4 -4 -4 -5 -5 -6 -7 -8 -9 -10 -10 -10 -10 -11 -10 -11 -11 -11 -11
-4 -3 -3 -3 -3 -3 -3 -3 -3 -3 -3 -3 -3 -4 -4 -4 -4 -4 -4 -4 -5 -5 -6 -6 -6 -6 -7 -7 -8 -9 -10 -10 -11 -11 -11 -12 -12 -12 -12 -12 -11 -12 -12
-4 -4 -4 -4 -4 -5 -5 -5 -5 -5 -6 -6 -6 -6 -6 -6 -7 -7 -7 -7 -7 -8 -8 -9 -9 -10 -10 -10 -10 -11 -11 -11 -11 -12 -12 -12 -12 -13 -13 -13 -13 -13 -13
-6 -6 -6 -6 -6 -7 -7 -7 -7 -8 -8 -8 -8 -9 -9 -9 -10 -10 -10 -10 -10 -10 -11 -11 -11 -11 -11 -12 -12 -12 -12 -12 -13 -13 -12 -13 -13 -13 -14 -14 -14 -14 -14
-8 -8 -8 -8 -8 -9 -9 -9 -9 -9 -10 -10 -10 -11 -11 -11 -12 -12 -12 -12 -12 -12 -12 -12 -12 -12 -12 -13 -13 -13 -13 -13 -13 -13 -14 -14 -14 -14 -15 -15 -15 -15 -15
-10 -10 -10 -10 -10 -11 -11 -11 -11 -12 -12 -13 -13 -13 -13 -13 -13 -13 -13 -13 -13 -13 -13 -13 -13 -13 -13 -13 -13 -13 -14 -14 -14 -14 -15 -15 -15 -16 -16 -16 -16 -16 -16
-12 -12 -12 -12 -12 -13 -13 -14 -14 -14 -14 -14 -14 -14 -14 -14 -14 -14 -14 -14 -13 -13 -13 -14 -14 -14 -14 -15 -15 -15 -15 -15 -16 -16 -16 -16 -17 -17 -17 -17 -17 -17 -17
-14 -14 -14 -14 -15 -15 -15 -15 -15 -15 -15 -15 -15 -15 -15 -15 -14 -14 -14 -14 -15 -15 -15 -15 -15 -15 -15 -16 -16 -16 -16 -16 -17 -17 -17 -17 -17 -17 -18 -18 -18 -18 -19
-15 -15 -15 -16 -16 -16 -16 -16 -16 -16 -16 -17 -17 -16 -16 -15 -15 -15 -16 -16 -16 -16 -16 -16 -16 -17 -17 -17 -17 -17 -17 -18 -18 -18 -18 -18 -18 -18 -18 -19 -19 -19 -19
-16 -16 -16 -17 -17 -17 -17 -17 -17 -17 -17 -17 -17 -16 -16 -16 -16 -17 -17 -17 -17 -17 -17 -18 -18 -18 -18 -18 -18 -18 -18 -18 -19 -19 -19 -19 -19 -19 -20 -20 -20 -20 -21
-17 -17 -18 -18 -18 -18 -18 -18 -18 -18 -18 -17 -17 -17 -17 -17 -18 -18 -18 -18 -18 -18 -18 -18 -18 -19 -19 -19 -19 -19 -19 -20 -20 -20 -20 -20 -20 -21 -21 -21 -21 -22 -22

GFSGL_700_temp_105.txt.gz
Temp
8 8 8 7 6 6 5 6 6 6 6 6 5 5 4 4 4 3 3 2 1 2 1 -0 1 0 1 0 0 -0 -0 -0 -1 -1 -1 -2 -1 -1 -2 -2 -2 -1 -1
8 8 7 6 6 6 5 6 6 6 6 6 5 5 4 4 4 4 3 2 1 1 1 1 1 1 1 0 -0 0 -0 -0 -1 -1 -1 -1 -1 -2 -2 -1 -1 -1 -2
7 6 6 6 6 5 5 6 6 6 6 6 5 5 4 4 3 3 3 3 2 2 1 1 1 1 1 1 1 0 -0 -1 -1 -1 -1 -1 -1 -1 -1 -1 -1 -1 -1
6 6 6 6 5 5 5 5 6 5 5 5 5 5 5 4 4 3 3 3 3 2 2 2 1 1 1 0 0 0 -0 -0 -1 -1 -1 -1 -1 -1 -1 -1 -1 -1 -1
6 5 6 5 5 5 5 5 5 5 5 5 5 5 4 4 3 3 3 3 3 3 2 2 2 1 1 1 1 0 0 -0 0 0 0 -0 -0 -1 -1 -0 -1 -1 -1
4 5 5 4 4 4 5 4 5 5 5 5 4 4 4 3 4 3 3 3 3 3 2 2 2 2 1 1 1 0 0 0 0 -0 0 0 0 -1 -1 -1 -1 -1 -1
4 2 3 3 4 4 4 4 4 4 4 4 4 3 3 4 4 4 4 4 3 3 2 2 2 2 1 2 1 0 -0 -1 -1 -1 -1 -1 -1 -1 -1 -1 -1 -1 -1
2 2 2 2 3 3 3 3 3 3 2 2 3 3 4 4 4 3 3 3 3 2 2 3 3 2 2 1 1 1 0 -0 -1 -1 -1 -1 -1 -2 -2 -1 -1 -1 -1
2 2 2 2 2 2 2 2 1 1 0 2 2 3 3 3 3 3 2 2 2 2 2 2 1 1 1 0 0 0 0 -0 0 -0 -0 -0 -1 -1 -1 -1 -1 -1 -2
0 -2 -0 1 1 1 1 1 0 1 1 1 1 1 1 2 2 1 1 0 0 1 1 1 1 0 1 1 -0 -0 -0 -0 -0 -1 -1 -0 -0 -1 -1 -1 -1 -1 -1
-5 -4 -4 -2 -0 -1 -0 -0 -1 -1 -0 -0 0 1 1 1 1 1 1 0 1 0 0 -0 -0 -0 0 0 0 -0 -0 -0 -1 -1 -1 -1 -1 -1 -1 -1 -1 -2 -2
-4 -5 -5 -5 -5 -5 -4 -4 -3 -3 -3 -3 -2 -2 -2 -1 -0 0 0 1 0 0 0 -1 -0 0 -0 -0 -0 -0 -0 -1 -0 -0 -0 -1 -1 -1 -1 -1 -2 -2 -3
-4 -5 -4 -5 -5 -4 -3 -3 -2 -2 -2 -1 -1 -1 -1 -0 -0 -0 -0 -0 -0 -0 -0 -1 -1 -1 -1 -0 -0 -0 -1 -1 -1 -1 -1 -2 -2 -2 -3 -3 -3 -4 -4
-4 -4 -4 -3 -4 -5 -5 -4 -3 -2 -2 -2 -1 -1 -1 -1 -1 -1 -1 -1 -1 -1 -1 -1 -1 -2 -2 -2 -2 -2 -2 -2 -3 -3 -3 -4 -4 -4 -5 -5 -5 -6 -6
-4 -3 -3 -3 -3 -3 -3 -2 -2 -2 -2 -2 -2 -2 -1 -2 -2 -2 -2 -2 -2 -2 -2 -2 -2 -2 -3 -3 -3 -3 -3 -4 -4 -4 -5 -5 -6 -6 -6 -7 -7 -8 -8
-4 -4 -4 -4 -4 -4 -3 -3 -3 -3 -3 -2 -3 -3 -2 -3 -2 -2 -2 -3 -3 -3 -3 -3 -3 -4 -4 -4 -4 -5 -5 -5 -6 -6 -7 -7 -8 -8 -8 -9 -9 -9 -9
-5 -5 -5 -4 -4 -4 -4 -4 -4 -4 -4 -4 -4 -4 -4 -4 -4 -4 -4 -4 -4 -4 -5 -5 -5 -5 -6 -6 -6 -7 -7 -8 -8 -8 -9 -9 -9 -10 -10 -10 -11 -11 -11
-6 -6 -6 -6 -6 -6 -6 -5 -5 -5 -5 -5 -5 -5 -5 -5 -5 -5 -6 -6 -6 -6 -7 -7 -8 -8 -8 -8 -9 -9 -9 -10 -10 -10 -10 -10 -11 -11 -11 -12 -12 -12 -12
-7 -7 -7 -7 -7 -7 -7 -7 -7 -7 -7 -7 -7 -7 -7 -7 -7 -8 -8 -8 -8 -9 -9 -9 -10 -10 -10 -10 -10 -11 -11 -11 -11 -11 -11 -12 -12 -12 -13 -13 -13 -13 -13
-8 -8 -8 -9 -9 -9 -9 -9 -9 -9 -9 -9 -9 -9 -9 -10 -10 -10 -10 -10 -10 -11 -11 -11 -11 -11 -11 -12 -12 -12 -12 -12 -12 -12 -12 -13 -13 -13 -13 -14 -14 -14 -15
-10 -10 -10 -10 -10 -11 -11 -11 -11 -11 -11 -11 -11 -11 -11 -11 -12 -12 -12 -12 -12 -12 -12 -12 -13 -13 -13 -13 -13 -13 -13 -13 -13 -13 -14 -14 -14 -14 -15 -15 -15 -15 -16
-13 -12 -12 -12 -12 -13 -13 -13 -13 -13 -13 -13 -13 -13 -13 -13 -13 -14 -14 -14 -14 -14 -14 -14 -14 -14 -14 -14 -14 -14 -14 -14 -14 -15 -15 -15 -15 -16 -16 -16 -16 -17 -17
-14 -15 -15 -15 -14 -14 -14 -15 -15 -15 -15 -15 -15 -15 -15 -15 -15 -15 -15 -15 -15 -15 -15 -15 -14 -14 -14 -14 -15 -15 -15 -15 -15 -16 -16 -16 -17 -17 -17 -17 -17 -17 -18
-16 -16 -16 -16 -16 -16 -16 -16 -16 -16 -16 -16 -16 -16 -16 -16 -16 -16 -16 -16 -16 -16 -16 -15 -15 -16 -16 -16 -16 -16 -16 -16 -17 -17 -17 -17 -18 -18 -18 -18 -18 -19 -19
-17 -17 -17 -17 -17 -17 -17 -17 -17 -17 -17 -18 -17 -17 -17 -17 -17 -17 -17 -17 -17 -16 -16 -16 -17 -17 -17 -17 -17 -17 -17 -18 -18 -18 -18 -18 -19 -19 -19 -19 -20 -20 -20
-18 -18 -18 -18 -18 -18 -18 -18 -18 -18 -18 -18 -18 -18 -18 -18 -18 -18 -18 -17 -17 -17 -18 -18 -18 -18 -18 -18 -18 -18 -18 -19 -19 -19 -19 -19 -20 -20 -20 -20 -21 -21 -21

GFSGL_700_temp_108.txt.gz
Temp
3 4 5 6 6 6 7 6 6 6 6 6 6 6 5 5 4 4 3 2 1 1 1 0 1 0 0 0 0 0 0 0 0 0 -0 -1 -1 -1 -1 -1 -1 -1 -1
4 4 5 5 5 4 6 6 6 6 6 6 6 5 5 4 5 4 4 3 3 2 1 1 1 0 0 1 0 0 0 -0 0 -0 -0 -1 -1 -1 -0 -1 -2 -1 -0
3 4 4 4 3 4 6 6 6 6 6 6 6 5 4 4 4 4 4 4 3 2 1 1 0 1 1 1 1 1 0 0 0 0 -0 -1 -2 -1 -1 -2 -1 -2 -1
3 4 4 3 3 3 6 6 6 6 5 5 5 5 4 4 4 4 4 3 3 2 2 1 1 1 1 1 1 0 0 1 0 0 -0 -0 -1 -1 -2 -2 -1 -1 -1
3 2 2 3 3 3 5 5 5 5 5 5 5 5 4 4 4 4 3 3 3 2 2 2 1 1 1 1 1 1 1 0 -0 -0 -0 -0 -1 -1 -1 -1 -1 -1 -2
3 2 2 2 2 4 5 5 5 5 5 5 5 4 4 5 4 4 4 3 3 2 2 2 2 1 1 1 1 1 0 -1 -1 -1 -0 -0 -1 -1 -1 -1 -1 -2 -1
1 1 1 2 4 3 3 4 4 4 4 4 4 4 4 4 4 4 3 3 2 2 3 3 2 3 2 2 1 1 0 0 -0 -1 -1 -1 -1 -1 -1 -1 -1 -1 -1
1 1 2 2 2 2 2 3 3 2 3 4 3 3 3 3 3 3 2 2 2 2 3 3 2 2 2 2 1 1 -1 -0 -0 -0 -1 -1 -1 -1 -1 -1 -1 -1 -1
0 1 1 1 2 1 2 2 2 1 0 2 2 2 3 2 1 2 2 2 2 2 2 2 2 2 2 2 -0 -1 -0 -1 -1 -0 -1 -1 -1 -1 -1 -1 -1 -1 -1
-3 -1 -0 -1 -0 1 1 1 1 1 0 0 1 0 0 -0 1 1 2 2 1 1 1 1 1 1 0 -0 0 -0 0 -1 -1 -1 -1 -1 -1 -1 -2 -1 -1 -1 -2
-5 -4 -4 -4 -4 -3 -2 -3 -2 0 -1 0 0 -0 -1 -1 -0 1 0 0 0 0 0 0 0 -0 0 -0 -0 -0 -0 -0 -0 -0 -0 -1 -1 -1 -1 -1 -2 -1 -2
-5 -5 -5 -5 -4 -3 -5 -4 -4 -3 -2 -2 -1 -1 -1 -2 -1 -1 -1 -1 -1 -1 -1 -0 -0 -0 -0 -1 -0 -0 -0 -0 -0 -0 -0 -1 -1 -1 -1 -1 -1 -2 -2
-4 -4 -5 -6 -6 -5 -5 -5 -6 -5 -5 -5 -5 -5 -4 -4 -3 -3 -3 -2 -1 -1 -1 -1 -1 -1 -1 -1 -0 -0 -0 -0 -1 -1 -1 -1 -1 -2 -2 -2 -3 -3 -4
-4 -4 -4 -4 -4 -5 -5 -5 -5 -5 -5 -5 -5 -4 -3 -2 -2 -2 -2 -2 -2 -2 -2 -2 -1 -1 -1 -1 -1 -1 -2 -2 -2 -2 -2 -2 -3 -3 -4 -4 -5 -5 -6
-4 -4 -4 -4 -4 -4 -4 -6 -6 -6 -6 -6 -6 -5 -5 -4 -3 -3 -2 -2 -2 -3 -3 -2 -2 -2 -2 -2 -3 -3 -3 -3 -3 -4 -4 -5 -5 -6 -6 -6 -7 -7 -7
-5 -5 -5 -5 -5 -5 -4 -4 -4 -4 -4 -4 -4 -4 -4 -4 -3 -3 -3 -3 -3 -3 -3 -3 -3 -3 -4 -4 -4 -4 -5 -5 -6 -6 -6 -6 -7 -7 -8 -8 -8 -8 -9
-5 -5 -5 -5 -5 -5 -5 -5 -5 -5 -5 -5 -5 -6 -5 -5 -5 -5 -5 -5 -4 -4 -4 -4 -4 -5 -5 -5 -5 -6 -6 -7 -7 -7 -8 -8 -8 -9 -9 -9 -10 -10 -10
-6 -6 -6 -6 -6 -6 -6 -6 -7 -7 -7 -7 -7 -7 -7 -7 -7 -6 -6 -6 -6 -6 -6 -6 -6 -7 -7 -7 -7 -8 -8 -9 -9 -9 -9 -10 -10 -11 -11 -11 -12 -12 -12
-8 -8 -8 -8 -8 -8 -8 -8 -8 -8 -8 -8 -8 -8 -8 -8 -8 -8 -8 -8 -8 -8 -8 -9 -9 -9 -9 -9 -10 -10 -10 -10 -11 -11 -11 -11 -12 -12 -12 -12 -13 -13 -13
-9 -9 -9 -9 -9 -9 -9 -9 -9 -9 -9 -9 -9 -9 -9 -9 -10 -10 -10 -10 -10 -11 -11 -11 -11 -11 -11 -12 -12 -12 -12 -12 -12 -12 -12 -13 -13 -13 -13 -13 -14 -14 -14
-11 -11 -11 -11 -11 -12 -12 -12 -11 -11 -12 -12 -12 -11 -11 -11 -12 -12 -12 -12 -12 -12 -12 -13 -13 -13 -13 -13 -13 -13 -13 -13 -13 -13 -13 -14 -14 -14 -14 -14 -15 -15 -15
-13 -13 -13 -13 -14 -14 -14 -14 -14 -14 -14 -14 -14 -14 -14 -14 -14 -14 -14 -14 -14 -14 -14 -14 -14 -14 -14 -14 -14 -14 -14 -14 -14 -14 -15 -15 -15 -15 -15 -16 -16 -16 -16
-15 -15 -15 -15 -15 -15 -15 -15 -15 -15 -15 -15 -15 -15 -15 -15 -15 -15 -15 -15 -15 -15 -15 -15 -15 -15 -15 -15 -15 -15 -15 -15 -16 -16 -16 -16 -16 -16 -17 -17 -17 -17 -17
-17 -17 -17 -17 -17 -17 -16 -16 -16 -16 -16 -16 -16 -16 -16 -16 -16 -16 -16 -16 -17 -17 -16 -16 -16 -16 -16 -16 -16 -16 -16 -17 -17 -17 -17 -17 -17 -17 -18 -18 -18 -18 -18
-18 -18 -18 -18 -18 -18 -18 -18 -18 -18 -18 -18 -18 -18 -18 -17 -17 -17 -18 -17 -17 -17 -17 -17 -17 -17 -17 -17 -17 -17 -18 -18 -18 -18 -18 -18 -18 -18 -19 -19 -19 -19 -19
-19 -19 -19 -19 -19 -19 -19 -19 -19 -19 -19 -19 -19 -19 -19 -19 -19 -19 -18 -18 -18 -18 -18 -18 -18 -18 -18 -18 -18 -19 -19 -19 -19 -19 -19 -19 -19 -19 -20 -20 -20 -20 -20

GFSGL_700_temp_111.txt.gz
Temp
3 3 4 4 3 4 4 5 6 6 6 5 5 6 6 6 5 5 4 3 2 1 1 1 1 1 1 0 1 0 0 -0 0 1 0 0 0 -0 -1 -1 -1 -1 -1
3 3 3 3 4 4 4 5 6 6 5 5 5 6 6 6 5 5 4 3 2 1 1 1 1 1 1 1 0 0 0 0 0 0 0 0 -0 -1 -1 -1 -1 -1 -1
3 3 3 3 3 3 3 5 5 5 5 5 5 5 5 5 5 5 4 3 2 2 1 1 1 1 0 1 0 0 0 0 0 0 0 -0 0 -0 -1 -1 -1 -2 -1
1 2 2 2 2 2 3 2 2 4 5 5 5 5 5 5 5 4 5 4 3 2 2 2 1 -0 -0 0 0 1 1 0 0 0 0 0 -0 -0 -1 -2 -1 -1 -2
2 2 2 3 3 3 3 3 3 3 4 5 5 4 4 5 5 4 4 4 3 2 2 1 1 0 0 1 1 1 1 0 0 0 0 -0 -0 -1 -1 -1 -2 -2 -2
1 1 1 2 2 3 2 3 2 3 4 4 2 4 4 5 4 4 3 3 3 3 3 3 2 2 2 2 1 1 1 1 1 1 0 1 -0 -0 -2 -2 -2 -1 -1
1 1 1 2 1 3 2 2 2 2 3 2 2 2 4 4 4 3 3 3 3 3 3 3 3 3 2 2 2 2 2 2 2 1 1 -0 0 -1 -1 -2 -1 -2 -2
0 1 1 1 1 2 2 1 2 2 1 2 2 2 2 3 3 2 2 2 2 3 3 3 3 3 2 2 1 1 1 1 0 -0 -1 -0 -0 -1 -1 -1 -1 -1 -1
-3 -0 1 -0 2 2 2 1 1 1 1 1 1 1 0 1 2 1 1 1 0 1 1 2 2 2 1 -0 -0 -0 -0 -1 -1 -0 -1 -1 -1 -1 -1 -1 -1 -1 -1
-3 -4 -2 0 -0 0 0 -0 1 1 -0 -0 1 -1 -1 -0 -1 -1 -1 -1 -1 0 0 0 -0 -0 0 -1 -1 -0 -1 -1 -0 -0 -1 -1 -1 -1 -1 -1 -1 -1 -1
-4 -4 -4 -3 -4 -4 -3 -1 -1 -3 -0 -1 -1 -1 -1 -2 -2 -2 -1 -1 -1 -1 -1 -1 -1 -1 -0 -0 -0 -0 -1 -0 -1 -1 -1 -1 -2 -1 -1 -1 -1 -1 -1
-4 -4 -4 -4 -4 -4 -5 -4 -4 -4 -4 -4 -3 -2 -2 -2 -2 -2 -2 -2 -2 -1 -1 -0 -0 -0 -0 -1 -1 -1 -1 -1 -1 -1 -1 -2 -1 -2 -1 -1 -1 -2 -2
-4 -4 -3 -2 -4 -6 -5 -5 -5 -5 -5 -5 -5 -5 -5 -5 -5 -4 -3 -2 -2 -3 -2 -3 -3 -2 -2 -2 -2 -3 -2 -2 -1 -1 -1 -1 -1 -2 -2 -2 -2 -2 -3
-4 -4 -4 -4 -4 -5 -6 -6 -6 -6 -5 -5 -5 -5 -5 -6 -6 -6 -6 -6 -6 -5 -5 -5 -4 -3 -3 -2 -2 -2 -2 -2 -2 -2 -2 -2 -2 -2 -3 -3 -3 -4 -4
-5 -5 -5 -5 -5 -5 -5 -5 -6 -6 -6 -6 -6 -6 -6 -5 -6 -6 -6 -6 -6 -6 -5 -5 -3 -3 -3 -3 -3 -3 -3 -2 -3 -4 -4 -3 -4 -4 -4 -5 -5 -5 -6
-6 -5 -5 -6 -5 -5 -5 -5 -5 -6 -6 -6 -6 -7 -6 -6 -6 -5 -5 -6 -6 -5 -5 -5 -5 -4 -3 -3 -4 -4 -4 -5 -5 -5 -6 -6 -6 -6 -6 -6 -7 -7 -7
-6 -6 -6 -6 -6 -6 -6 -6 -6 -6 -6 -6 -7 -7 -7 -7 -6 -6 -6 -5 -5 -5 -5 -5 -6 -6 -6 -6 -6 -7 -7 -7 -7 -7 -8 -7 -8 -8 -8 -8 -9 -9 -9
-8 -8 -8 -7 -7 -7 -7 -8 -8 -8 -8 -8 -8 -8 -8 -8 -8 -7 -7 -7 -7 -7 -7 -8 -8 -8 -8 -8 -8 -9 -9 -9 -9 -9 -9 -9 -9 -10 -10 -10 -10 -11 -11
-8 -9 -9 -9 -9 -9 -9 -9 -9 -9 -9 -9 -9 -9 -10 -10 -9 -9 -9 -9 -9 -9 -9 -10 -10 -10 -10 -10 -10 -10 -11 -11 -11 -11 -11 -11 -11 -11 -11 -11 -12 -12 -12
-10 -11 -11 -10 -11 -11 -11 -11 -11 -11 -11 -11 -11 -11 -11 -11 -11 -11 -12 -12 -12 -12 -12 -11 -11 -11 -11 -12 -12 -12 -12 -12 -12 -12 -12 -12 -12 -12 -13 -13 -13 -13 -13
-12 -12 -12 -12 -12 -13 -13 -13 -13 -13 -13 -13 -13 -13 -13 -13 -13 -13 -13 -13 -13 -13 -13 -13 -13 -13 -13 -13 -14 -14 -13 -13 -13 -14 -13 -14 -14 -14 -14 -14 -14 -14 -15
-14 -14 -14 -14 -14 -14 -14 -14 -14 -15 -15 -15 -15 -14 -14 -15 -15 -15 -15 -15 -15 -15 -15 -15 -14 -15 -15 -15 -15 -15 -14 -14 -14 -14 -14 -15 -15 -15 -15 -15 -15 -15 -16
-17 -17 -16 -16 -16 -16 -16 -16 -16 -16 -16 -16 -16 -16 -16 -16 -16 -16 -16 -16 -16 -16 -16 -16 -16 -16 -16 -16 -16 -16 -16 -15 -15 -15 -15 -16 -16 -16 -16 -16 -17 -17 -17
-18 -18 -18 -18 -17 -17 -17 -17 -17 -17 -17 -17 -17 -17 -18 -18 -17 -17 -17 -17 -17 -17 -17 -17 -17 -17 -17 -17 -17 -16 -17 -17 -17 -17 -17 -17 -17 -17 -18 -18 -18 -18 -18
-19 -19 -19 -19 -19 -19 -19 -18 -18 -19 -19 -19 -19 -19 -19 -19 -19 -19 -19 -19 -19 -18 -18 -18 -18 -18 -18 -18 -18 -18 -18 -18 -18 -18 -18 -18 -18 -19 -19 -19 -19 -19 -19
-20 -20 -20 -20 -20 -20 -20 -20 -20 -20 -19 -19 -19 -19 -19 -19 -19 -20 -19 -19 -19 -19 -19 -18 -18 -19 -19 -19 -19 -19 -19 -19 -19 -19 -19 -19 -19 -20 -20 -20 -20 -20 -20

GFSGL_700_temp_114.txt.gz
Temp
5 4 3 3 4 4 4 4 4 4 5 5 5 5 5 5 5 5 5 4 3 2 2 2 1 1 2 1 1 0 1 1 1 -0 -0 -1 -0 -0 -0 -0 -0 -1 -1
4 4 4 3 3 3 3 4 4 4 4 5 5 5 5 5 5 5 4 4 3 2 2 1 1 1 0 1 0 1 0 0 1 -0 -0 -0 -0 -0 -0 -0 -1 -1 -1
2 3 3 3 3 3 2 3 4 4 4 3 4 4 4 5 5 5 4 4 4 3 2 1 1 1 1 0 0 1 0 0 0 1 0 0 0 -0 -1 -0 -0 -0 -1
2 2 2 2 3 3 3 3 3 3 2 3 3 4 4 5 5 5 4 4 4 3 2 1 1 0 1 1 1 0 1 0 0 0 -0 -0 -0 -0 -0 -0 -0 -0 -1
2 2 1 2 2 2 2 2 3 2 2 2 3 3 4 5 5 5 4 4 4 3 3 2 1 1 1 -0 -0 0 1 0 1 0 0 -0 0 0 0 1 -0 -0 -1
1 1 2 1 1 2 2 2 2 2 2 2 2 3 3 4 4 4 4 3 3 3 3 2 2 1 -0 -0 -1 -1 -0 0 1 1 -0 0 0 -1 -1 -0 -0 -1 -0
0 -0 0 1 1 0 2 2 2 2 2 1 1 3 3 3 3 3 3 3 3 3 3 3 3 2 1 1 1 1 1 1 2 1 1 -0 -0 0 -1 -2 -2 -2 -2
-2 -1 -0 0 1 0 2 2 1 2 2 2 2 2 2 2 2 1 2 2 2 2 2 2 2 2 2 1 1 2 1 1 1 1 1 1 -0 -1 -1 -1 -1 -1 -1
-3 -2 -2 -1 0 -0 0 2 2 1 1 1 1 2 1 2 2 1 0 1 1 1 1 1 2 2 1 1 0 1 1 1 1 1 1 0 -1 -1 -1 -1 -1 -1 -1
-4 -4 -3 -3 -3 -2 -2 -0 -1 1 0 -0 0 1 1 0 0 0 -0 -0 -0 -0 -1 -0 -0 -0 -0 -1 -2 -1 -0 -1 -1 -1 -2 -1 -1 -1 -1 -1 -1 -1 -2
-4 -4 -4 -4 -4 -4 -4 -3 -2 -1 -1 -3 -1 -0 0 -0 -0 -1 -1 -1 -1 -2 -1 -0 -1 -1 -1 -1 -1 -1 -1 -1 -1 -1 -1 -1 -1 -1 -1 -1 -2 -1 -2
-4 -4 -4 -5 -6 -5 -4 -4 -4 -4 -4 -4 -3 -4 -2 -2 -1 -1 -1 -1 -1 -1 -2 -2 -2 -2 -1 -1 -1 -2 -1 -1 -1 -1 -1 -2 -2 -2 -2 -2 -2 -2 -3
-4 -4 -4 -4 -4 -5 -5 -4 -4 -4 -5 -5 -4 -4 -4 -4 -5 -4 -3 -3 -2 -2 -2 -3 -2 -2 -2 -3 -1 -1 -2 -2 -2 -3 -2 -2 -2 -3 -3 -2 -3 -3 -3
-5 -5 -5 -4 -4 -5 -5 -4 -5 -6 -4 -4 -5 -5 -5 -5 -5 -5 -5 -6 -5 -5 -5 -5 -4 -4 -4 -4 -4 -4 -4 -5 -5 -4 -3 -4 -4 -4 -3 -3 -3 -3 -4
-5 -5 -5 -5 -5 -5 -5 -5 -5 -5 -6 -6 -7 -6 -6 -6 -6 -6 -6 -5 -6 -6 -6 -6 -6 -6 -6 -6 -6 -6 -5 -6 -6 -3 -3 -4 -4 -5 -4 -4 -4 -5 -5
-6 -6 -6 -6 -6 -6 -6 -6 -6 -6 -6 -6 -6 -6 -6 -7 -6 -6 -6 -6 -7 -7 -7 -6 -6 -6 -6 -6 -6 -6 -6 -6 -6 -5 -5 -5 -5 -6 -7 -6 -6 -6 -7
-7 -7 -7 -7 -7 -7 -7 -7 -7 -7 -7 -7 -7 -7 -7 -7 -7 -7 -8 -7 -7 -7 -7 -7 -7 -7 -7 -7 -7 -7 -7 -7 -7 -7 -8 -8 -8 -7 -7 -7 -8 -8 -8
-8 -8 -8 -8 -8 -8 -8 -8 -8 -8 -8 -8 -8 -8 -8 -8 -9 -9 -9 -9 -9 -9 -9 -9 -9 -9 -9 -9 -9 -9 -9 -9 -9 -9 -9 -9 -9 -9 -9 -9 -9 -10 -10
-10 -10 -10 -10 -10 -10 -10 -10 -10 -10 -10 -10 -10 -10 -10 -10 -10 -10 -11 -10 -10 -10 -10 -10 -10 -10 -10 -10 -10 -11 -10 -10 -10 -10 -10 -10 -10 -10 -11 -11 -11 -11 -12
-11 -11 -12 -12 -12 -12 -12 -12 -12 -12 -12 -12 -12 -12 -12 -12 -12 -12 -12 -12 -12 -12 -12 -12 -12 -12 -12 -12 -12 -12 -12 -12 -12 -12 -12 -12 -12 -12 -12 -12 -12 -12 -12
-14 -13 -13 -14 -14 -14 -14 -14 -14 -14 -14 -14 -14 -14 -14 -14 -14 -14 -14 -14 -13 -13 -13 -13 -13 -13 -13 -13 -13 -13 -13 -13 -13 -13 -13 -13 -13 -13 -13 -13 -14 -14 -14
-16 -16 -16 -15 -16 -16 -16 -16 -16 -16 -16 -16 -16 -16 -16 -16 -16 -16 -15 -15 -15 -15 -15 -15 -15 -15 -15 -15 -15 -15 -14 -14 -14 -15 -15 -15 -15 -15 -15 -15 -15 -16 -16
-18 -18 -18 -18 -17 -17 -18 -18 -18 -18 -17 -18 -18 -17 -17 -17 -17 -17 -17 -17 -17 -17 -17 -17 -17 -16 -16 -16 -16 -16 -16 -16 -16 -16 -16 -16 -16 -16 -17 -17 -17 -17 -17
-19 -19 -19 -19 -19 -18 -18 -19 -19 -19 -19 -19 -19 -19 -19 -19 -19 -18 -18 -18 -18 -18 -18 -18 -18 -18 -18 -17 -17 -17 -17 -17 -17 -17 -17 -17 -17 -17 -18 -18 -18 -18 -18
-20 -20 -20 -20 -19 -19 -19 -19 -19 -20 -20 -20 -20 -20 -20 -20 -19 -19 -19 -20 -19 -19 -19 -19 -19 -19 -19 -19 -18 -18 -18 -18 -18 -18 -18 -18 -18 -19 -19 -19 -19 -19 -19
-20 -20 -20 -20 -20 -20 -20 -20 -20 -20 -20 -20 -21 -21 -21 -21 -21 -21 -20 -20 -20 -20 -20 -20 -20 -19 -19 -19 -19 -19 -19 -19 -19 -19 -19 -19 -20 -20 -20 -20 -20 -20 -20

GFSGL_700_temp_117.txt.gz
Temp
5 5 4 4 4 4 4 4 4 4 4 3 4 4 5 5 5 5 5 5 5 4 3 2 2 1 1 1 1 1 1 0 0 -0 0 -1 -1 -1 -1 -1 -1 -0 -0
4 4 4 4 3 3 3 3 3 3 3 3 3 3 4 5 5 4 5 5 5 4 3 2 2 1 1 1 1 1 1 1 1 -0 -0 -0 0 -0 -0 -0 -0 -1 -1
2 2 2 3 3 3 3 3 3 3 3 3 3 3 3 4 4 4 4 5 5 4 3 3 2 2 1 1 1 0 1 0 0 0 0 -0 0 -0 -0 -0 -0 -1 -0
1 1 1 1 2 3 3 2 3 3 3 2 3 2 3 4 4 4 4 5 5 4 4 3 2 1 1 1 0 1 0 1 0 0 0 0 -0 -0 -0 -0 -0 -1 -1
1 1 2 1 2 2 2 2 2 2 2 2 2 2 2 3 3 4 4 5 5 4 4 3 3 2 0 1 1 1 1 0 0 0 0 0 0 -0 -0 -0 -0 -1 -1
0 0 1 1 1 1 1 2 1 2 2 2 2 1 2 3 4 3 4 4 4 4 3 3 3 1 1 0 1 0 0 0 0 0 0 -0 0 -0 0 0 -0 -1 -1
-1 0 -0 0 0 -0 -0 1 1 2 2 2 2 0 1 2 2 3 3 3 3 3 3 3 3 2 0 -0 -0 -0 -0 0 0 0 -0 0 -0 -0 -1 -1 -0 -1 -1
-3 -3 -2 -1 -1 -0 -1 -0 0 1 1 2 0 0 1 1 2 2 2 2 2 2 2 2 2 1 0 -1 -1 -1 -0 -1 -1 -0 -0 0 1 -1 -1 -1 -2 -2 -2
-3 -3 -3 -3 -3 -1 -1 -1 0 1 0 1 0 1 1 1 1 1 1 2 2 2 1 1 1 2 1 -0 -0 -1 -0 -1 -0 -0 0 0 0 -1 -1 -2 -1 -2 -1
-3 -3 -3 -4 -4 -4 -3 -2 -1 -1 -1 -0 0 0 1 0 1 0 1 1 2 1 0 0 1 1 0 -0 -1 -0 0 -1 -1 -1 -1 -1 -2 -2 -2 -2 -2 -2 -1
-3 -3 -3 -3 -4 -4 -4 -4 -4 -3 -3 -3 -2 -1 -1 -0 0 0 -0 -1 -1 -1 -1 -0 -1 -1 -1 -1 -2 -1 -1 -1 -1 -1 -1 -1 -2 -2 -2 -2 -2 -1 -1
-3 -3 -4 -4 -4 -4 -4 -4 -5 -5 -5 -4 -4 -3 -2 -2 -2 -1 -0 -1 -1 -1 -1 -1 -1 -1 -2 -1 -1 -1 -1 -1 -1 -1 -2 -1 -2 -1 -1 -1 -1 -2 -2
-4 -4 -4 -4 -4 -4 -4 -4 -4 -5 -5 -5 -5 -5 -4 -4 -4 -4 -4 -4 -4 -3 -2 -2 -2 -2 -2 -2 -2 -2 -2 -2 -2 -2 -2 -2 -1 -2 -2 -2 -2 -3 -3
-5 -5 -5 -5 -5 -4 -5 -5 -5 -5 -6 -6 -6 -6 -6 -6 -5 -5 -5 -5 -5 -5 -5 -4 -4 -4 -4 -3 -3 -3 -3 -3 -2 -2 -3 -2 -3 -4 -4 -4 -5 -5 -5
-6 -6 -6 -6 -6 -5 -5 -5 -6 -6 -5 -5 -6 -6 -6 -6 -6 -6 -6 -6 -6 -6 -6 -6 -6 -5 -5 -5 -5 -5 -5 -6 -5 -5 -5 -5 -5 -5 -6 -6 -6 -6 -6
-6 -6 -6 -7 -7 -6 -6 -6 -6 -7 -7 -6 -6 -6 -6 -6 -7 -7 -7 -7 -7 -7 -6 -6 -7 -7 -7 -6 -6 -6 -6 -7 -7 -7 -7 -6 -6 -6 -7 -7 -7 -7 -7
-7 -7 -7 -7 -7 -7 -7 -7 -7 -7 -7 -7 -8 -7 -7 -7 -7 -7 -7 -7 -7 -7 -7 -7 -7 -7 -7 -7 -7 -7 -7 -7 -7 -7 -7 -7 -8 -8 -8 -8 -8 -8 -8
-8 -8 -9 -9 -9 -9 -9 -9 -9 -9 -9 -9 -9 -9 -9 -9 -9 -9 -9 -9 -9 -9 -9 -8 -8 -8 -8 -8 -8 -8 -8 -8 -8 -8 -8 -9 -9 -9 -9 -9 -10 -10 -10
-10 -10 -10 -10 -11 -11 -11 -11 -11 -12 -12 -11 -11 -11 -11 -11 -11 -10 -10 -10 -10 -10 -10 -10 -10 -10 -10 -10 -10 -10 -10 -10 -10 -10 -10 -10 -11 -11 -11 -11 -11 -11 -11
-12 -13 -13 -13 -13 -13 -14 -14 -13 -13 -13 -14 -13 -13 -13 -13 -13 -13 -13 -12 -12 -12 -12 -12 -12 -12 -12 -12 -12 -12 -12 -12 -12 -12 -12 -12 -12 -12 -12 -12 -12 -12 -12
-14 -15 -15 -15 -15 -16 -16 -16 -17 -16 -16 -15 -15 -15 -15 -15 -15 -14 -14 -14 -14 -14 -14 -14 -14 -13 -14 -13 -13 -13 -13 -13 -13 -13 -13 -13 -13 -14 -14 -14 -14 -14 -14
-16 -16 -17 -17 -17 -18 -18 -18 -18 -18 -18 -17 -17 -17 -17 -17 -17 -16 -16 -16 -16 -16 -16 -15 -15 -15 -15 -15 -15 -15 -15 -15 -15 -15 -15 -15 -15 -15 -15 -15 -15 -15 -15
-17 -18 -18 -18 -18 -19 -19 -19 -19 -19 -19 -19 -19 -19 -18 -18 -18 -18 -18 -18 -18 -17 -17 -17 -17 -17 -17 -17 -16 -16 -16 -16 -16 -16 -16 -16 -16 -16 -16 -16 -16 -16 -16
-18 -19 -19 -19 -19 -19 -19 -20 -20 -20 -20 -20 -20 -20 -19 -19 -19 -19 -19 -19 -19 -19 -19 -18 -18 -18 -18 -18 -18 -18 -17 -17 -17 -17 -17 -17 -17 -17 -17 -17 -17 -17 -17
-19 -19 -20 -20 -20 -20 -20 -20 -20 -20 -20 -20 -21 -21 -21 -20 -20 -20 -20 -20 -20 -20 -20 -20 -20 -19 -19 -19 -19 -19 -19 -19 -18 -18 -18 -18 -18 -18 -18 -18 -18 -18 -19
-20 -20 -20 -20 -21 -21 -21 -21 -20 -20 -21 -21 -21 -21 -21 -21 -21 -21 -21 -21 -21 -21 -21 -21 -20 -20 -20 -20 -20 -19 -19 -19 -19 -19 -19 -19 -19 -19 -19 -19 -19 -19 -19

GFSGL_700_temp_120.txt.gz
Temp
5 5 5 5 5 5 5 5 5 4 4 4 4 4 3 4 4 4 4 4 5 5 4 5 5 4 3 2 1 1 1 1 1 1 0 -0 -0 -0 -0 -2 -1 -1 -0
5 5 5 5 4 4 4 4 4 4 4 3 3 3 3 4 3 3 4 4 4 4 4 5 5 4 3 1 1 1 1 1 1 1 -0 -0 -0 -0 -0 -2 -1 -1 -1
4 4 4 3 2 3 3 3 3 3 3 3 3 3 3 3 3 3 3 4 4 4 4 5 5 4 3 2 1 1 1 1 1 0 0 -0 -0 -1 -1 -1 -1 -1 -1
3 2 1 1 1 2 2 2 2 2 2 3 3 2 2 3 3 3 3 3 3 4 4 5 5 4 3 2 1 1 1 1 1 0 0 -0 -0 -1 -1 -1 -0 -1 -1
-0 0 0 0 1 1 1 2 2 2 2 2 2 2 2 2 2 2 1 2 3 3 4 4 4 4 3 1 1 1 1 1 0 1 0 -0 -0 -0 -0 -0 -1 -1 -1
-2 -1 -0 -1 -0 0 1 1 1 2 1 2 2 1 2 2 2 1 1 2 2 2 3 4 4 4 3 2 0 -0 1 0 0 0 0 0 -0 -0 -0 -0 -1 -1 -1
-3 -2 -2 -1 -0 -0 -0 -0 1 1 1 1 1 1 1 2 1 1 0 -0 1 2 3 3 3 3 3 1 0 -0 1 0 0 -0 -0 -0 -0 0 -1 -0 -0 -0 -1
-3 -3 -3 -3 -2 -1 -2 -1 -1 -0 0 -0 1 1 1 1 1 0 -0 -0 1 2 3 3 2 2 2 3 2 -1 -1 -1 -0 -0 -1 -1 -0 -0 -1 -0 -1 -1 -1
-3 -3 -3 -3 -3 -3 -3 -2 -1 -1 -1 -1 -0 0 0 1 0 -0 0 0 1 1 1 1 0 1 1 1 0 -1 -0 -2 -0 -1 -0 -1 -1 -1 -1 -0 -2 -2 -2
-3 -3 -3 -3 -3 -3 -3 -3 -3 -3 -2 -2 -1 -1 -1 -0 -1 -0 -0 0 -1 0 0 -0 -0 0 0 0 1 -1 -0 -2 -1 -1 -2 -2 -1 -1 -1 -2 -3 -2 -2
-4 -4 -4 -4 -4 -3 -3 -4 -3 -4 -4 -4 -3 -3 -2 -2 -1 -1 -1 -0 -1 -1 -1 -0 -1 -0 -1 -0 -0 -2 -1 -1 -2 -2 -2 -2 -2 -2 -2 -3 -2 -2 -2
-5 -5 -5 -5 -4 -4 -4 -4 -3 -3 -4 -4 -4 -4 -4 -4 -4 -3 -2 -2 -2 -1 -1 -1 -0 -0 -1 -1 -1 -1 -1 -2 -2 -2 -1 -2 -2 -2 -1 -2 -2 -3 -2
-6 -5 -5 -5 -5 -5 -4 -4 -4 -4 -4 -4 -5 -5 -4 -5 -5 -5 -5 -4 -4 -3 -3 -3 -2 -1 -1 -1 -1 -2 -2 -2 -1 -1 -1 -2 -2 -2 -2 -2 -2 -2 -2
-6 -6 -5 -6 -5 -5 -5 -5 -5 -5 -5 -5 -5 -5 -5 -6 -5 -5 -6 -6 -6 -5 -5 -5 -4 -4 -4 -3 -3 -2 -3 -2 -3 -3 -3 -3 -3 -3 -3 -3 -2 -3 -3
-6 -6 -6 -6 -6 -6 -6 -6 -6 -6 -6 -6 -6 -6 -6 -6 -6 -6 -6 -6 -6 -6 -6 -6 -6 -6 -6 -5 -5 -5 -5 -5 -4 -5 -4 -4 -5 -5 -4 -4 -5 -5 -5
-7 -7 -7 -7 -7 -7 -7 -7 -7 -7 -7 -7 -7 -7 -7 -7 -7 -7 -6 -6 -6 -7 -7 -7 -7 -7 -7 -7 -7 -6 -6 -6 -6 -6 -6 -7 -7 -7 -6 -6 -6 -7 -7
-8 -8 -8 -8 -8 -8 -8 -9 -9 -8 -8 -9 -9 -9 -8 -8 -8 -8 -8 -8 -8 -8 -8 -8 -7 -7 -7 -7 -7 -7 -7 -7 -7 -7 -7 -7 -7 -7 -7 -7 -7 -8 -8
-9 -9 -9 -9 -10 -10 -10 -10 -11 -11 -11 -11 -10 -11 -11 -10 -10 -10 -9 -9 -9 -9 -9 -9 -9 -9 -9 -9 -8 -8 -8 -8 -8 -8 -8 -8 -8 -8 -9 -9 -9 -9 -9
-10 -10 -11 -11 -12 -12 -13 -13 -13 -13 -13 -13 -13 -12 -12 -12 -12 -12 -12 -12 -11 -11 -11 -11 -11 -11 -11 -11 -10 -10 -10 -10 -10 -10 -10 -10 -10 -10 -9 -10 -10 -10 -11
-12 -13 -13 -14 -14 -15 -15 -15 -15 -15 -15 -15 -15 -15 -15 -15 -14 -14 -14 -14 -13 -13 -13 -13 -13 -12 -12 -12 -12 -12 -12 -12 -12 -12 -12 -12 -12 -12 -12 -12 -12 -12 -12
-14 -15 -15 -16 -16 -16 -16 -17 -17 -18 -18 -18 -17 -17 -17 -17 -17 -16 -16 -16 -16 -15 -15 -15 -14 -14 -14 -14 -14 -14 -14 -14 -14 -13 -13 -14 -14 -14 -14 -13 -13 -13 -14
-16 -16 -16 -17 -17 -17 -18 -18 -19 -19 -19 -19 -19 -19 -19 -18 -18 -18 -18 -17 -17 -17 -17 -17 -16 -16 -16 -16 -15 -15 -15 -15 -15 -15 -15 -15 -15 -15 -15 -15 -15 -15 -15
-17 -17 -17 -18 -18 -18 -19 -19 -19 -20 -20 -20 -20 -20 -20 -19 -19 -19 -19 -19 -19 -18 -18 -18 -18 -18 -17 -17 -17 -17 -17 -17 -17 -17 -17 -17 -17 -17 -16 -16 -16 -16 -16
-18 -18 -19 -19 -19 -19 -20 -20 -20 -20 -20 -20 -20 -20 -20 -20 -20 -20 -20 -20 -20 -20 -20 -19 -19 -19 -19 -19 -19 -19 -18 -18 -18 -18 -18 -18 -17 -17 -17 -17 -17 -17 -17
-19 -19 -20 -20 -20 -20 -20 -20 -21 -21 -21 -21 -21 -21 -21 -21 -21 -21 -21 -21 -21 -21 -21 -21 -20 -20 -20 -20 -20 -20 -20 -20 -19 -19 -19 -19 -18 -18 -18 -18 -18 -18 -18
-20 -20 -21 -21 -21 -21 -21 -21 -21 -21 -22 -22 -22 -22 -22 -22 -22 -22 -21 -21 -21 -21 -21 -21 -21 -21 -21 -21 -21 -21 -20 -20 -20 -20 -20 -19 -19 -19 -19 -19 -19 -19 -19

GFSGL_700_temp_123.txt.gz
Temp
2 1 1 2 3 4 5 5 5 5 5 4 4 4 3 4 3 4 3 4 4 4 4 4 5 4 4 4 3 3 2 1 1 1 1 1 0 0 0 -0 -0 -0 0
0 1 1 3 4 4 4 5 5 4 4 4 4 4 4 3 3 3 3 3 3 3 4 4 4 4 4 4 3 3 2 1 1 1 1 1 0 -0 -0 -0 -0 -1 -0
3 3 4 4 3 3 4 4 4 4 4 4 3 3 3 3 3 3 3 3 3 3 3 4 4 4 4 4 4 3 2 2 1 1 1 1 0 -0 -0 -0 -0 -1 -2
2 3 3 2 1 2 2 2 2 3 2 2 2 3 3 3 3 3 2 2 2 2 3 3 4 4 4 4 4 3 2 2 2 2 1 1 0 -0 -0 -1 -1 -1 -1
-0 0 0 -1 -1 -0 1 1 1 1 2 2 2 2 2 2 3 3 2 2 1 2 2 3 3 3 3 4 4 3 2 2 1 1 1 1 0 -0 0 -0 -0 -1 -1
-2 -1 -1 -1 -1 -1 -0 0 1 1 1 1 2 1 2 1 1 2 2 2 2 2 1 1 2 3 3 3 3 4 2 1 1 1 0 0 0 0 -0 -0 -0 -1 -0
-3 -2 -2 -3 -3 -2 -2 -1 -1 -0 -0 0 0 1 1 1 1 0 0 1 1 2 2 2 1 2 2 3 3 3 3 1 1 0 0 0 -0 0 -0 -0 -1 -1 -1
-3 -3 -3 -3 -2 -2 -2 -2 -1 -1 -1 -1 -1 -1 -0 -0 1 1 0 1 0 -0 0 -0 0 1 2 2 2 1 0 1 0 0 0 0 -0 -1 -1 -0 -1 -1 -0
-3 -3 -3 -2 -2 -3 -3 -3 -3 -3 -3 -2 -1 -1 -1 -1 -1 -0 -0 -0 0 -0 -0 -0 -1 0 1 0 1 -0 1 -0 -1 -2 -1 -0 -1 -1 -1 -1 -1 -0 -1
-3 -3 -3 -3 -3 -3 -3 -3 -3 -3 -3 -3 -3 -3 -2 -1 -0 -1 0 -0 -0 -0 0 -1 -1 0 0 -0 0 -0 -0 -1 -1 -1 -1 -1 -1 -1 -1 -1 -0 -1 -1
-5 -5 -4 -4 -4 -4 -4 -4 -4 -4 -4 -4 -4 -3 -3 -3 -3 -2 -2 -1 -1 -1 -1 -1 -0 -1 -1 0 -0 -1 -0 -0 -1 -1 -1 -1 -2 -2 -1 -2 -2 -2 -2
-5 -5 -5 -5 -5 -5 -5 -5 -5 -5 -4 -4 -4 -4 -4 -4 -4 -4 -4 -3 -3 -2 -2 -2 -1 -1 -1 -0 -0 -0 -1 -1 -1 -1 -2 -1 -1 -1 -2 -2 -3 -3 -2
-6 -6 -6 -6 -5 -6 -6 -5 -5 -5 -5 -5 -4 -5 -4 -4 -5 -5 -5 -5 -5 -5 -4 -4 -3 -2 -2 -1 -1 -1 -1 -1 -1 -2 -2 -2 -2 -2 -1 -2 -2 -2 -2
-6 -6 -6 -6 -6 -6 -6 -6 -6 -6 -6 -5 -5 -5 -5 -5 -5 -5 -5 -6 -6 -6 -5 -5 -5 -5 -5 -4 -3 -3 -2 -2 -2 -2 -2 -2 -2 -2 -3 -2 -2 -2 -2
-7 -7 -7 -7 -7 -6 -6 -7 -7 -6 -6 -6 -6 -6 -6 -6 -6 -6 -6 -6 -6 -6 -6 -6 -6 -6 -6 -6 -6 -5 -5 -4 -4 -4 -4 -4 -4 -4 -4 -4 -4 -3 -3
-7 -7 -7 -7 -7 -8 -8 -7 -7 -7 -8 -8 -8 -7 -7 -7 -7 -7 -7 -7 -7 -7 -7 -7 -7 -7 -7 -7 -7 -7 -7 -6 -6 -6 -6 -6 -6 -6 -6 -6 -6 -6 -6
-8 -8 -8 -8 -8 -9 -9 -9 -9 -9 -8 -9 -10 -10 -9 -9 -9 -9 -9 -9 -9 -9 -9 -9 -9 -8 -8 -8 -8 -7 -7 -7 -7 -7 -7 -7 -7 -7 -7 -7 -7 -7 -7
-10 -10 -10 -10 -10 -11 -11 -11 -11 -11 -11 -11 -12 -13 -13 -12 -12 -12 -12 -12 -12 -11 -11 -11 -11 -10 -10 -9 -9 -9 -9 -9 -9 -8 -8 -8 -8 -8 -8 -8 -8 -8 -8
-11 -11 -12 -12 -12 -13 -13 -14 -14 -14 -14 -14 -14 -15 -15 -15 -15 -14 -15 -14 -14 -14 -14 -13 -13 -13 -12 -12 -11 -11 -11 -11 -10 -10 -10 -10 -10 -10 -10 -10 -10 -10 -10
-12 -13 -13 -14 -15 -15 -15 -16 -16 -16 -16 -16 -16 -16 -17 -17 -17 -17 -17 -16 -16 -16 -16 -15 -15 -15 -14 -14 -13 -13 -13 -12 -12 -12 -12 -12 -12 -12 -12 -12 -12 -12 -11
-14 -14 -15 -16 -16 -16 -17 -17 -17 -17 -17 -18 -18 -18 -18 -19 -19 -19 -18 -18 -18 -17 -17 -17 -17 -16 -16 -15 -15 -15 -15 -14 -14 -14 -14 -14 -14 -14 -14 -14 -14 -14 -14
-15 -16 -16 -17 -17 -18 -18 -18 -18 -19 -19 -19 -19 -19 -20 -20 -20 -20 -20 -20 -19 -19 -19 -19 -18 -18 -18 -17 -17 -17 -16 -16 -16 -16 -16 -16 -16 -16 -16 -16 -15 -15 -15
-17 -17 -18 -18 -18 -19 -19 -19 -20 -20 -20 -20 -20 -20 -20 -20 -20 -20 -20 -20 -20 -20 -20 -20 -20 -19 -19 -19 -19 -18 -18 -18 -18 -18 -17 -17 -17 -17 -17 -17 -17 -17 -16
-18 -18 -19 -19 -19 -20 -20 -21 -21 -21 -21 -21 -21 -21 -21 -21 -21 -21 -21 -21 -21 -21 -21 -21 -21 -20 -20 -20 -20 -20 -20 -19 -19 -19 -19 -19 -18 -18 -18 -18 -18 -17 -17
-19 -19 -20 -20 -20 -21 -21 -21 -22 -22 -22 -22 -22 -22 -22 -22 -22 -22 -22 -21 -21 -21 -21 -21 -21 -21 -21 -21 -21 -21 -21 -21 -20 -20 -20 -20 -19 -19 -19 -19 -19 -19 -19
-19 -20 -21 -21 -21 -22 -22 -22 -22 -22 -23 -23 -23 -23 -23 -23 -23 -23 -22 -22 -22 -22 -22 -22 -22 -22 -22 -22 -22 -22 -21 -21 -21 -21 -21 -20 -20 -20 -20 -20 -20 -20 -20

GFSGL_700_temp_126.txt.gz
Temp
3 3 3 3 3 3 4 4 4 3 3 4 4 4 4 4 4 3 3 3 4 3 3 3 4 4 4 4 4 4 4 4 4 3 3 2 2 2 1 1 1 1 0
2 2 2 2 2 2 2 3 2 2 3 4 4 4 4 3 4 4 3 3 3 3 3 3 4 3 3 3 4 4 4 4 3 3 3 3 2 2 1 1 1 1 0
1 1 0 1 -0 1 1 2 2 3 3 4 4 4 4 3 3 3 3 3 3 3 3 3 3 3 3 3 4 4 4 4 3 3 2 2 2 2 1 1 0 -0 -0
-2 -1 -1 -0 -1 -0 0 1 2 2 2 3 2 3 3 3 3 3 3 3 3 3 3 3 2 2 3 3 3 4 3 4 3 3 2 2 2 1 1 0 0 -0 -0
-2 -2 -2 -1 -2 -1 0 -1 0 1 1 1 1 2 2 2 2 3 3 3 3 3 3 3 2 2 2 2 2 3 3 3 3 3 2 2 2 2 1 1 -0 -0 -1
-4 -3 -2 -2 -1 -1 -1 -0 -0 -0 0 1 1 1 1 2 2 2 2 2 2 2 2 2 2 2 2 1 2 3 2 3 3 3 2 2 2 1 1 0 0 -0 -0
-3 -3 -3 -3 -3 -2 -3 -3 -1 -1 -1 -0 0 0 0 0 1 1 1 2 1 1 1 1 1 1 1 1 2 1 2 2 3 3 1 1 1 1 -0 1 0 -0 0
-4 -3 -3 -3 -3 -2 -2 -2 -2 -2 -2 -1 -1 -1 -0 0 -1 -1 -0 0 0 0 0 0 1 1 1 0 -0 0 2 2 3 3 2 0 -0 -0 -0 -0 -0 0 -0
-4 -3 -3 -3 -3 -3 -3 -2 -2 -2 -3 -3 -3 -3 -2 -2 -2 -1 -0 -0 -0 0 -0 1 0 0 -0 0 -0 -0 0 1 1 0 0 1 -0 -0 0 0 -0 -0 -0
-3 -3 -4 -4 -3 -3 -3 -3 -3 -3 -3 -3 -3 -3 -3 -3 -3 -2 -2 -2 -1 -1 -1 -0 -0 -1 -0 -0 -1 -0 -0 -0 -0 -0 -0 -1 -0 -0 -0 -1 -1 -0 -0
-4 -4 -4 -4 -4 -4 -4 -4 -3 -3 -4 -4 -4 -4 -4 -4 -3 -3 -3 -3 -3 -2 -2 -1 -1 -1 -0 -0 -1 -1 -1 -1 0 -1 -1 -1 -1 -0 -1 -1 -1 -1 -1
-5 -5 -5 -5 -5 -5 -4 -4 -4 -4 -4 -4 -4 -4 -4 -4 -4 -4 -4 -4 -4 -4 -4 -3 -2 -2 -1 -1 -1 -1 -1 -1 -1 -0 -0 -0 -1 -0 -1 -1 -1 -1 -1
-6 -6 -6 -5 -5 -5 -5 -5 -5 -5 -5 -4 -4 -5 -5 -5 -5 -5 -5 -5 -5 -5 -5 -4 -5 -4 -4 -3 -2 -2 -1 -1 -1 -0 -1 -0 -1 -1 -1 -1 -1 -1 -2
-6 -6 -6 -6 -6 -6 -6 -6 -6 -6 -6 -6 -6 -5 -5 -5 -5 -5 -6 -6 -5 -5 -5 -5 -5 -5 -5 -5 -5 -4 -4 -3 -3 -2 -2 -2 -1 -1 -1 -2 -2 -2 -2
-7 -7 -7 -7 -7 -7 -7 -7 -7 -7 -7 -7 -7 -7 -7 -7 -7 -6 -6 -6 -6 -6 -6 -6 -6 -6 -6 -6 -6 -6 -5 -5 -5 -5 -5 -4 -4 -3 -3 -3 -3 -2 -2
-8 -8 -8 -8 -8 -9 -9 -9 -8 -9 -9 -9 -9 -8 -8 -8 -9 -9 -8 -8 -9 -8 -8 -8 -7 -7 -7 -7 -7 -7 -7 -7 -7 -6 -6 -6 -6 -6 -6 -6 -5 -5 -5
-9 -9 -9 -9 -10 -10 -10 -10 -10 -10 -10 -10 -11 -11 -10 -10 -10 -10 -11 -11 -10 -11 -10 -10 -10 -9 -9 -9 -9 -8 -8 -8 -7 -7 -7 -7 -8 -7 -7 -8 -7 -7 -7
-10 -11 -11 -11 -11 -12 -12 -12 -12 -12 -13 -13 -13 -13 -13 -13 -13 -13 -13 -13 -13 -13 -13 -13 -12 -12 -11 -11 -11 -10 -10 -10 -9 -9 -9 -9 -9 -9 -8 -8 -8 -8 -8
-12 -12 -12 -13 -13 -13 -13 -14 -14 -15 -15 -15 -16 -16 -16 -16 -16 -15 -15 -15 -15 -15 -15 -15 -15 -14 -14 -13 -13 -12 -12 -11 -11 -11 -11 -10 -10 -10 -10 -10 -9 -9 -9
-13 -13 -14 -14 -14 -15 -15 -15 -16 -16 -17 -17 -17 -17 -17 -18 -18 -18 -18 -18 -18 -18 -17 -17 -17 -17 -16 -15 -15 -14 -14 -13 -13 -13 -12 -12 -12 -12 -11 -11 -11 -11 -11
-14 -14 -14 -15 -15 -16 -16 -17 -17 -18 -18 -18 -19 -19 -19 -19 -19 -19 -19 -19 -19 -19 -19 -19 -19 -18 -18 -17 -16 -16 -16 -15 -15 -14 -14 -14 -14 -14 -14 -13 -13 -13 -13
-15 -15 -15 -16 -17 -17 -18 -18 -19 -19 -19 -20 -20 -20 -20 -20 -20 -20 -20 -20 -20 -20 -20 -20 -20 -19 -19 -19 -18 -18 -17 -17 -17 -16 -16 -16 -15 -15 -15 -15 -15 -15 -15
-16 -16 -17 -17 -18 -19 -19 -20 -20 -20 -21 -21 -21 -21 -21 -21 -21 -21 -21 -21 -21 -21 -21 -21 -21 -21 -20 -20 -20 -20 -19 -19 -19 -18 -18 -18 -18 -18 -18 -17 -17 -17 -17
-17 -17 -18 -19 -19 -20 -20 -21 -21 -21 -21 -22 -22 -22 -22 -22 -22 -22 -22 -22 -21 -21 -21 -21 -21 -21 -21 -21 -21 -21 -21 -20 -20 -20 -20 -19 -19 -19 -19 -18 -18 -18 -18
-18 -19 -19 -20 -20 -21 -21 -22 -22 -22 -22 -22 -22 -23 -23 -23 -23 -23 -22 -22 -22 -22 -22 -22 -22 -22 -22 -22 -22 -22 -21 -21 -21 -21 -21 -21 -20 -20 -20 -20 -20 -19 -19
-19 -20 -20 -21 -21 -22 -22 -22 -23 -23 -23 -23 -23 -23 -23 -23 -23 -23 -23 -23 -23 -23 -23 -23 -23 -23 -22 -22 -22 -22 -22 -22 -22 -22 -22 -21 -21 -21 -21 -21 -20 -20 -20

GFSGL_700_temp_129.txt.gz
Temp
1 1 0 0 1 1 2 2 3 4 5 5 5 5 5 5 5 5 4 4 4 4 3 2 1 2 2 2 2 2 3 3 3 4 4 4 4 3 2 2 1 2 1
1 1 -0 0 1 1 3 3 4 4 4 4 4 4 4 5 5 5 4 3 3 3 3 3 2 3 2 2 1 1 3 3 3 4 4 4 4 3 2 2 1 1 1
-1 -0 -0 0 1 1 1 2 1 1 2 3 3 3 3 3 4 4 3 3 4 3 3 3 3 2 2 2 2 2 3 3 3 3 4 4 4 4 2 2 2 2 1
-1 -0 -0 0 1 1 0 1 0 -0 1 1 2 1 3 3 4 3 3 3 3 3 3 3 3 2 2 2 2 2 3 3 3 3 3 3 4 4 2 2 2 2 2
-2 -2 -1 -1 -0 0 -1 -1 -1 -0 0 -0 -0 1 1 1 1 1 1 2 2 2 2 2 2 2 2 2 2 2 2 2 2 4 3 2 4 4 3 2 2 1 1
-3 -3 -3 -2 -2 -2 -2 -1 -1 -2 -1 -0 -0 -0 -0 1 1 1 1 1 2 2 2 1 2 2 2 2 2 2 2 2 2 2 2 2 3 4 3 2 2 1 1
-4 -3 -3 -3 -3 -3 -3 -3 -2 -2 -2 -2 -1 -1 -1 -1 -1 -0 -1 1 1 1 0 1 1 1 1 2 1 1 1 1 2 2 0 1 2 3 2 1 1 1 1
-3 -3 -3 -3 -3 -3 -3 -3 -2 -2 -2 -2 -2 -2 -2 -2 -2 -2 -1 -1 -0 -0 -0 -0 1 0 1 1 1 1 1 1 1 0 0 1 2 1 0 0 0 0 0
-4 -4 -4 -3 -3 -3 -3 -3 -3 -3 -3 -3 -2 -2 -2 -2 -2 -2 -2 -2 -2 -2 -2 -1 -0 -0 -0 1 1 0 1 0 0 -0 -0 -0 -1 -0 -0 0 -0 0 -0
-4 -4 -4 -4 -4 -4 -3 -3 -3 -3 -3 -3 -3 -3 -3 -3 -3 -3 -3 -2 -3 -3 -3 -3 -2 -1 -1 -0 -0 -0 0 0 -0 -0 -0 -1 -1 -1 -1 -0 0 -0 0
-5 -5 -5 -5 -5 -4 -4 -4 -4 -4 -4 -4 -4 -4 -3 -3 -3 -3 -4 -4 -3 -3 -3 -3 -3 -3 -3 -2 -1 -1 -1 -1 -1 -1 0 -1 -0 -0 -0 0 -0 0 -1
-6 -6 -6 -6 -6 -6 -6 -6 -6 -5 -5 -5 -5 -4 -4 -4 -4 -4 -4 -4 -4 -4 -4 -4 -3 -3 -3 -3 -3 -2 -2 -1 -1 -1 -1 -0 -0 -1 -1 -0 -0 -1 -0
-7 -7 -6 -6 -6 -6 -6 -6 -6 -6 -5 -5 -5 -5 -5 -5 -5 -5 -5 -5 -5 -5 -5 -5 -5 -4 -4 -4 -4 -4 -4 -3 -2 -2 -1 -1 -1 -1 -1 -1 -1 -1 -1
-7 -7 -7 -7 -7 -7 -7 -6 -7 -7 -7 -6 -6 -6 -6 -6 -6 -6 -6 -6 -6 -6 -6 -6 -6 -6 -6 -5 -5 -5 -5 -5 -5 -4 -3 -2 -2 -2 -2 -2 -1 -1 -1
-8 -8 -8 -8 -8 -8 -7 -7 -7 -6 -7 -7 -7 -8 -7 -8 -8 -8 -8 -8 -8 -7 -7 -7 -7 -8 -8 -7 -6 -6 -6 -6 -6 -6 -5 -5 -4 -4 -4 -3 -3 -3 -3
-8 -8 -8 -8 -8 -8 -8 -9 -8 -9 -9 -10 -10 -10 -10 -10 -10 -10 -10 -10 -10 -10 -9 -9 -9 -9 -9 -9 -9 -8 -8 -7 -7 -7 -7 -6 -6 -6 -6 -6 -6 -5 -5
-8 -9 -9 -9 -9 -10 -10 -11 -11 -11 -12 -12 -12 -12 -13 -13 -13 -13 -12 -12 -12 -11 -11 -11 -11 -11 -11 -11 -11 -10 -10 -10 -9 -8 -8 -8 -8 -8 -7 -7 -7 -7 -7
-10 -10 -11 -11 -11 -11 -12 -12 -12 -13 -13 -13 -14 -15 -15 -15 -15 -15 -15 -15 -15 -15 -15 -14 -14 -14 -14 -14 -13 -13 -12 -12 -11 -10 -10 -9 -9 -9 -9 -9 -9 -9 -9
-11 -11 -11 -12 -12 -13 -13 -13 -14 -14 -15 -15 -15 -16 -17 -17 -17 -17 -17 -17 -17 -17 -17 -17 -17 -17 -16 -16 -16 -15 -14 -13 -13 -12 -12 -11 -11 -11 -11 -10 -10 -10 -10
-12 -12 -13 -13 -14 -14 -14 -15 -15 -15 -16 -17 -17 -18 -18 -19 -19 -19 -19 -19 -19 -19 -19 -19 -19 -19 -18 -18 -17 -17 -16 -15 -15 -14 -14 -13 -13 -13 -12 -12 -12 -11 -11
-13 -13 -14 -14 -15 -15 -15 -16 -16 -17 -18 -19 -19 -19 -19 -20 -20 -20 -20 -20 -20 -20 -20 -20 -20 -20 -20 -19 -19 -18 -17 -17 -17 -16 -16 -15 -15 -15 -14 -14 -14 -13 -13
-14 -15 -15 -16 -16 -16 -17 -18 -18 -19 -19 -20 -20 -20 -20 -21 -21 -21 -21 -21 -21 -21 -21 -21 -21 -21 -21 -20 -20 -19 -19 -18 -18 -18 -18 -17 -17 -16 -16 -16 -16 -16 -15
-15 -16 -16 -16 -17 -18 -18 -19 -20 -20 -21 -21 -21 -21 -21 -21 -22 -22 -22 -22 -22 -22 -22 -22 -21 -21 -21 -21 -21 -21 -21 -20 -20 -20 -20 -19 -19 -19 -18 -18 -18 -18 -18
-16 -16 -17 -18 -18 -19 -20 -20 -21 -21 -21 -21 -22 -22 -22 -22 -22 -22 -22 -22 -22 -22 -22 -22 -22 -22 -22 -22 -22 -22 -21 -21 -21 -21 -21 -21 -20 -20 -20 -20 -19 -19 -19
-17 -18 -18 -19 -19 -20 -21 -21 -22 -22 -22 -22 -22 -23 -23 -23 -23 -23 -23 -23 -23 -23 -23 -23 -23 -23 -22 -22 -22 -22 -22 -22 -22 -22 -21 -21 -21 -21 -20 -20 -20 -20 -19
-18 -19 -19 -20 -20 -21 -22 -22 -22 -23 -23 -23 -23 -23 -24 -24 -24 -24 -24 -24 -24 -24 -24 -23 -23 -23 -23 -23 -23 -23 -22 -22 -22 -22 -22 -22 -22 -22 -21 -21 -21 -21 -20

GFSGL_700_temp_132.txt.gz
Temp
-2 -0 -0 1 1 2 2 2 2 1 1 1 2 3 3 3 5 5 5 5 4 4 4 4 4 4 3 3 3 2 2 2 2 3 3 2 2 3 3 3 3 3 3
-2 -0 0 0 0 0 0 1 0 1 -0 0 1 1 3 3 3 4 4 4 3 3 3 3 4 4 3 3 2 2 3 2 2 3 3 2 2 2 2 3 3 3 3
-1 -1 -1 -1 0 -0 -0 0 0 1 1 1 1 1 2 2 3 3 3 3 3 3 3 3 3 3 3 3 2 3 2 2 2 2 3 2 2 3 2 3 3 3 3
-3 -2 -1 -1 -0 -0 0 -0 -0 0 1 0 1 2 2 2 2 2 2 2 2 2 3 2 2 3 3 3 3 2 2 2 2 2 2 2 2 3 3 3 3 3 3
-4 -4 -3 -2 -2 -1 -1 -1 -1 -0 -1 0 0 0 0 0 0 0 1 2 2 1 1 1 1 1 1 2 2 2 2 2 2 2 1 2 2 3 3 3 3 2 2
-6 -5 -5 -4 -5 -3 -3 -3 -2 -1 -1 -2 -2 -2 -0 -1 -1 -1 -1 -0 0 -0 -0 -0 1 1 1 1 1 2 2 2 1 1 2 2 2 2 2 2 2 2 2
-4 -4 -3 -4 -3 -3 -3 -2 -2 -2 -2 -2 -2 -2 -2 -2 -2 -2 -2 -3 -2 -2 -0 -1 -1 0 0 0 0 -0 1 1 1 1 1 1 1 1 2 1 1 2 2
-4 -4 -4 -3 -3 -3 -3 -2 -2 -1 -2 -2 -2 -2 -2 -2 -2 -2 -2 -2 -2 -2 -2 -2 -1 -1 0 -1 0 0 0 -0 1 0 0 1 2 1 1 0 0 -0 -0
-4 -3 -3 -3 -4 -4 -3 -3 -3 -3 -2 -2 -2 -2 -2 -2 -2 -3 -2 -2 -2 -2 -2 -2 -2 -2 -2 -2 -1 -1 -0 -0 0 0 1 1 -0 1 0 -0 -0 -1 1
-4 -4 -4 -4 -4 -4 -3 -3 -3 -3 -3 -3 -3 -3 -3 -3 -3 -3 -3 -3 -3 -3 -3 -3 -2 -2 -2 -2 -2 -2 -1 -1 -1 -1 -0 0 -0 -0 -0 0 -0 -0 -1
-5 -5 -5 -5 -4 -4 -4 -4 -4 -4 -4 -4 -4 -4 -4 -4 -4 -4 -3 -3 -3 -3 -3 -3 -3 -3 -3 -3 -3 -3 -3 -2 -2 -1 -1 -1 -0 -0 -0 -0 -1 -1 -0
-6 -6 -6 -5 -5 -5 -5 -5 -5 -5 -5 -5 -5 -5 -5 -5 -5 -5 -5 -5 -5 -4 -4 -4 -4 -4 -4 -3 -3 -3 -3 -3 -3 -2 -2 -1 -1 -1 -1 -1 -1 -1 -1
-7 -7 -7 -6 -6 -6 -6 -6 -6 -6 -6 -6 -6 -6 -6 -6 -6 -6 -7 -7 -7 -7 -6 -6 -6 -6 -5 -5 -5 -5 -5 -4 -4 -4 -3 -3 -3 -2 -2 -1 -1 -1 -1
-7 -7 -7 -7 -7 -6 -6 -6 -6 -6 -7 -7 -7 -7 -7 -8 -7 -8 -8 -8 -8 -8 -8 -8 -8 -8 -8 -7 -6 -6 -6 -6 -6 -5 -5 -4 -4 -4 -4 -3 -3 -2 -1
-8 -8 -7 -7 -7 -7 -7 -7 -7 -7 -8 -8 -8 -8 -8 -8 -8 -9 -9 -10 -10 -11 -11 -11 -11 -10 -10 -10 -9 -9 -8 -8 -8 -7 -7 -6 -6 -5 -5 -4 -4 -4 -3
-8 -8 -8 -8 -8 -8 -9 -9 -9 -8 -8 -9 -9 -10 -10 -10 -11 -12 -12 -13 -13 -13 -13 -13 -13 -13 -12 -12 -11 -10 -11 -10 -10 -9 -9 -8 -8 -7 -7 -6 -6 -6 -6
-9 -9 -9 -9 -10 -10 -10 -10 -10 -11 -11 -11 -11 -12 -13 -13 -14 -15 -15 -16 -16 -16 -16 -15 -15 -15 -15 -15 -14 -14 -14 -14 -13 -12 -11 -11 -10 -9 -8 -8 -8 -8 -8
-10 -10 -10 -11 -11 -11 -11 -11 -12 -12 -12 -12 -13 -14 -15 -16 -17 -17 -18 -18 -18 -18 -18 -17 -17 -17 -17 -17 -17 -17 -17 -16 -16 -15 -13 -13 -12 -11 -11 -10 -10 -10 -9
-10 -11 -11 -12 -12 -12 -12 -13 -13 -13 -14 -14 -15 -16 -17 -18 -18 -19 -19 -19 -19 -19 -19 -19 -19 -18 -19 -19 -19 -19 -18 -18 -17 -16 -16 -15 -14 -14 -13 -13 -12 -12 -11
-11 -12 -12 -12 -13 -13 -13 -14 -14 -15 -16 -17 -17 -18 -18 -19 -19 -19 -19 -19 -19 -20 -20 -20 -20 -20 -20 -20 -20 -20 -20 -19 -19 -18 -18 -17 -16 -16 -15 -15 -14 -14 -13
-12 -13 -13 -14 -14 -15 -15 -15 -16 -17 -17 -18 -19 -19 -19 -20 -20 -20 -20 -20 -20 -20 -20 -21 -21 -21 -21 -21 -21 -21 -21 -20 -20 -20 -19 -19 -18 -17 -17 -16 -15 -15 -15
-13 -14 -14 -15 -15 -16 -16 -17 -17 -18 -19 -19 -20 -20 -20 -21 -21 -21 -21 -21 -21 -21 -21 -21 -21 -21 -22 -21 -21 -21 -21 -21 -21 -21 -20 -20 -20 -19 -19 -18 -18 -17 -17
-14 -14 -15 -16 -16 -17 -17 -18 -19 -19 -20 -20 -21 -21 -21 -21 -21 -22 -22 -22 -22 -22 -22 -22 -22 -22 -22 -22 -22 -22 -22 -22 -22 -22 -22 -22 -21 -21 -20 -19 -19 -19 -19
-15 -15 -16 -17 -17 -18 -18 -19 -20 -20 -21 -21 -22 -22 -22 -22 -22 -22 -23 -23 -23 -23 -23 -23 -23 -23 -23 -23 -23 -23 -23 -23 -22 -22 -22 -22 -22 -22 -22 -21 -21 -21 -21
-16 -16 -17 -18 -18 -19 -20 -20 -21 -21 -22 -22 -22 -23 -23 -23 -23 -23 -23 -24 -24 -24 -24 -24 -24 -24 -24 -23 -24 -23 -23 -23 -23 -23 -23 -22 -22 -22 -22 -22 -22 -22 -22
-17 -18 -18 -19 -19 -20 -21 -21 -22 -22 -23 -23 -24 -24 -24 -24 -25 -25 -25 -25 -25 -25 -25 -25 -25 -24 -24 -24 -24 -24 -24 -24 -24 -23 -23 -23 -23 -23 -23 -23 -22 -22 -22

GFSGL_700_temp_135.txt.gz
Temp
-5 -4 -3 -2 -1 -1 1 2 1 1 2 2 1 1 2 1 1 1 2 3 4 4 4 4 4 4 4 3 3 3 4 2 2 2 3 2 2 2 2 2 3 3 3
-5 -3 -4 -3 -2 -1 -0 1 2 1 0 -0 1 1 -0 -0 -0 1 2 2 3 3 3 3 3 3 3 3 3 3 2 4 2 3 2 2 2 2 2 2 2 3 3
-6 -4 -2 -1 -1 -1 -0 -0 -0 -0 1 0 0 0 -0 -0 0 1 2 1 2 2 2 3 3 2 3 3 3 3 2 2 2 2 1 1 1 2 2 2 2 2 3
-6 -5 -3 -2 -1 -1 -1 -1 -0 -1 -0 -0 -0 0 -1 -0 -0 0 1 1 1 1 1 1 1 1 2 2 1 2 2 2 2 2 2 2 2 2 1 1 1 2 2
-6 -5 -5 -4 -4 -3 -2 -2 -1 -1 -1 -0 -0 -1 -1 -1 -1 -0 0 0 -0 -0 -0 -0 -1 -0 0 -0 1 0 1 1 1 2 2 2 2 3 2 1 1 1 2
-5 -6 -6 -6 -5 -5 -5 -4 -3 -2 -2 -2 -2 -3 -2 -1 -1 -1 -1 -1 -0 -0 -1 -1 -1 -1 -1 -1 -1 0 -0 -1 0 1 1 1 1 2 0 1 1 2 1
-5 -4 -4 -5 -4 -4 -4 -4 -4 -3 -3 -3 -3 -3 -2 -2 -2 -2 -2 -2 -2 -1 -1 -2 -2 -1 -1 -2 -1 -1 -1 -1 -1 1 0 0 0 1 1 1 1 1 1
-5 -5 -5 -4 -4 -4 -4 -4 -3 -4 -3 -3 -3 -3 -3 -2 -2 -2 -2 -2 -2 -2 -2 -2 -2 -1 -1 -1 -2 -2 -2 -2 -1 -1 -0 -0 -0 0 0 -0 0 1 1
-5 -5 -5 -5 -4 -4 -4 -3 -3 -3 -3 -3 -3 -3 -3 -3 -3 -3 -3 -3 -3 -3 -3 -2 -2 -2 -2 -2 -2 -2 -2 -2 -3 -2 -1 -1 -1 -0 -0 -0 -0 0 1
-6 -5 -5 -5 -4 -4 -3 -3 -3 -3 -3 -3 -2 -2 -3 -3 -3 -3 -3 -3 -3 -4 -4 -4 -3 -3 -3 -3 -2 -2 -2 -2 -1 -2 -2 -2 -1 -1 -0 -0 -0 -0 0
-5 -5 -5 -5 -4 -4 -4 -4 -4 -4 -4 -4 -3 -3 -4 -4 -4 -4 -4 -4 -4 -4 -4 -4 -4 -4 -4 -3 -3 -3 -3 -2 -2 -2 -2 -1 -1 -2 -2 -1 -1 -0 -0
-6 -6 -5 -5 -5 -5 -5 -5 -5 -5 -5 -5 -5 -5 -5 -5 -5 -5 -5 -5 -5 -5 -5 -5 -4 -4 -5 -5 -5 -5 -4 -4 -4 -3 -3 -3 -2 -2 -2 -2 -2 -1 -1
-7 -7 -7 -7 -7 -7 -7 -6 -6 -6 -6 -6 -6 -6 -6 -6 -6 -6 -6 -6 -6 -6 -6 -5 -5 -5 -6 -6 -6 -6 -6 -6 -6 -5 -4 -4 -4 -3 -3 -3 -2 -2 -2
-7 -7 -7 -6 -6 -6 -6 -6 -6 -6 -6 -7 -7 -7 -6 -7 -7 -7 -6 -6 -7 -7 -7 -8 -8 -9 -9 -9 -9 -9 -9 -9 -8 -8 -7 -6 -6 -5 -5 -5 -4 -3 -3
-7 -7 -8 -7 -7 -7 -6 -6 -6 -6 -6 -7 -7 -7 -7 -7 -7 -7 -8 -8 -8 -10 -10 -11 -12 -12 -12 -12 -13 -12 -12 -12 -11 -11 -10 -9 -9 -8 -7 -6 -6 -5 -4
-8 -8 -8 -7 -7 -8 -8 -8 -8 -8 -8 -8 -9 -9 -9 -9 -10 -10 -11 -12 -12 -13 -13 -14 -14 -15 -15 -15 -15 -15 -15 -15 -14 -13 -13 -12 -11 -11 -10 -9 -8 -7 -6
-9 -9 -9 -9 -10 -10 -10 -10 -11 -11 -11 -11 -11 -11 -11 -12 -13 -14 -15 -16 -16 -17 -17 -17 -17 -17 -17 -17 -17 -17 -17 -17 -16 -16 -16 -16 -15 -14 -14 -12 -11 -10 -9
-10 -10 -10 -10 -11 -11 -11 -11 -12 -12 -12 -12 -13 -13 -14 -15 -15 -16 -17 -18 -18 -18 -18 -18 -18 -18 -18 -18 -18 -18 -19 -19 -19 -18 -18 -18 -17 -16 -15 -15 -13 -13 -12
-10 -11 -11 -11 -12 -12 -13 -13 -13 -13 -13 -14 -14 -15 -16 -17 -17 -18 -18 -19 -19 -19 -19 -19 -19 -19 -19 -19 -20 -20 -20 -20 -20 -20 -20 -19 -19 -18 -17 -17 -16 -15 -15
-11 -11 -12 -12 -13 -13 -14 -14 -14 -14 -15 -15 -16 -16 -17 -18 -18 -19 -19 -19 -20 -20 -20 -20 -20 -20 -20 -20 -21 -21 -21 -21 -21 -21 -21 -20 -20 -19 -19 -18 -18 -17 -17
-12 -12 -13 -13 -14 -14 -15 -15 -15 -16 -16 -17 -17 -18 -19 -19 -20 -20 -20 -20 -20 -21 -21 -21 -21 -21 -21 -21 -21 -22 -22 -22 -22 -21 -21 -21 -21 -21 -20 -20 -19 -19 -18
-13 -13 -14 -14 -15 -15 -16 -16 -16 -17 -18 -18 -19 -19 -20 -20 -21 -21 -21 -21 -22 -22 -22 -22 -22 -22 -22 -22 -22 -22 -22 -22 -22 -22 -22 -22 -22 -22 -21 -21 -21 -20 -20
-14 -14 -15 -15 -16 -16 -17 -17 -18 -18 -19 -19 -20 -20 -21 -22 -22 -22 -22 -23 -23 -23 -23 -23 -23 -23 -23 -23 -23 -23 -23 -23 -23 -23 -23 -23 -23 -23 -22 -22 -22 -21 -21
-14 -15 -15 -16 -16 -17 -17 -18 -19 -19 -20 -21 -21 -22 -22 -23 -23 -24 -24 -24 -24 -24 -24 -24 -24 -24 -24 -24 -24 -24 -24 -23 -23 -23 -23 -23 -23 -23 -23 -23 -23 -22 -22
-15 -16 -16 -17 -17 -18 -18 -19 -20 -21 -21 -22 -22 -23 -23 -24 -24 -25 -25 -25 -25 -25 -26 -25 -25 -25 -25 -25 -25 -25 -24 -24 -24 -24 -24 -23 -24 -24 -23 -23 -23 -23 -23
-16 -17 -17 -18 -18 -19 -20 -20 -21 -21 -22 -23 -24 -24 -25 -25 -26 -26 -26 -26 -26 -26 -26 -26 -26 -26 -26 -25 -26 -25 -25 -25 -25 -25 -24 -24 -24 -24 -24 -24 -24 -24 -23